When you browse on this site, cookies collect data to enhance your experience and personalize the content and advertising you see.
Visit our Privacy Policy to learn more. By continuing to use the site, you agree to this use of cookies and data.
  • In Österreich
  • Länderverzeichnis
  • Für 7 Tage
  • Wassertemperatur
  • Wetterkarte
  • News
  • Widgets
  • user-avatar
    Anmelden

    Stündliche Wetter Rabka-Zdrój

    Heute, 20 August, Dienstag

    Zeit Temperatur Niederschläge Wind Luftdruck Luftfeuchtigkeit
    00:00 +19°C° 0 mm 1 m/S 710 mmHg 78%
    01:00 +19°C° 0 mm 1 m/S 710 mmHg 78%
    02:00 +18°C° 0 mm 1 m/S 710 mmHg 80%
    03:00 +18°C° 0 mm 1 m/S 710 mmHg 82%
    04:00 +18°C° 0 mm 1 m/S 710 mmHg 84%
    05:00 +19°C° 0 mm 1 m/S 711 mmHg 80%
    06:00 +18°C° 0 mm 0 m/S 711 mmHg 77%
    07:00 +20°C° 0 mm 0 m/S 711 mmHg 74%
    08:00 +21°C° 0 mm 0 m/S 712 mmHg 68%
    09:00 +23°C° 0 mm 0 m/S 712 mmHg 62%
    10:00 +27°C° 0 mm 1 m/S 712 mmHg 56%
    11:00 +28°C° 0.2 mm 1 m/S 712 mmHg 54%
    12:00 +28°C° 0.2 mm 1 m/S 712 mmHg 52%
    13:00 +29°C° 0.2 mm 2 m/S 712 mmHg 50%
    14:00 +29°C° 0.2 mm 2 m/S 712 mmHg 53%
    15:00 +28°C° 0.2 mm 2 m/S 711 mmHg 56%
    16:00 +28°C° 0.2 mm 2 m/S 711 mmHg 60%
    17:00 +26°C° 0.1 mm 2 m/S 711 mmHg 66%
    18:00 +24°C° 0.1 mm 1 m/S 710 mmHg 72%
    19:00 +23°C° 0.1 mm 1 m/S 710 mmHg 78%
    20:00 +22°C° 0.1 mm 1 m/S 710 mmHg 81%
    21:00 +21°C° 0.1 mm 1 m/S 710 mmHg 83%
    22:00 +20°C° 0.1 mm 1 m/S 710 mmHg 85%
    23:00 +20°C° 0 mm 1 m/S 710 mmHg 85%

    Morgen, 21 August, Mittwoch

    Zeit Temperatur Niederschläge Wind Luftdruck Luftfeuchtigkeit
    00:00 +20°C° 0 mm 1 m/S 710 mmHg 85%
    01:00 +19°C° 0 mm 1 m/S 710 mmHg 85%
    02:00 +19°C° 0 mm 1 m/S 710 mmHg 86%
    03:00 +19°C° 0 mm 1 m/S 710 mmHg 86%
    04:00 +18°C° 0 mm 1 m/S 710 mmHg 87%
    05:00 +19°C° 0 mm 1 m/S 710 mmHg 85%
    06:00 +21°C° 0 mm 1 m/S 711 mmHg 83%
    07:00 +20°C° 0 mm 0 m/S 712 mmHg 81%
    08:00 +23°C° 0 mm 1 m/S 712 mmHg 77%
    09:00 +24°C° 0 mm 1 m/S 713 mmHg 74%
    10:00 +25°C° 0 mm 2 m/S 713 mmHg 70%
    11:00 +25°C° 0.1 mm 2 m/S 713 mmHg 69%
    12:00 +25°C° 0.1 mm 3 m/S 713 mmHg 68%
    13:00 +25°C° 0.1 mm 3 m/S 714 mmHg 67%
    14:00 +22°C° 0.1 mm 3 m/S 713 mmHg 70%
    15:00 +21°C° 0.1 mm 3 m/S 713 mmHg 73%
    16:00 +20°C° 0.1 mm 3 m/S 713 mmHg 76%
    17:00 +19°C° 0.1 mm 3 m/S 713 mmHg 80%
    18:00 +17°C° 0.1 mm 3 m/S 713 mmHg 85%
    19:00 +16°C° 0.1 mm 2 m/S 713 mmHg 89%
    20:00 +15°C° 0 mm 2 m/S 713 mmHg 91%
    21:00 +15°C° 0 mm 2 m/S 713 mmHg 92%
    22:00 +14°C° 0 mm 2 m/S 713 mmHg 94%
    23:00 +14°C° 0 mm 2 m/S 713 mmHg 94%

    übermorgen, 22 August, Donnerstag

    Zeit Temperatur Niederschläge Wind Luftdruck Luftfeuchtigkeit
    00:00 +14°C° 0 mm 2 m/S 713 mmHg 95%
    01:00 +13°C° 0 mm 2 m/S 713 mmHg 95%
    02:00 +13°C° 0.1 mm 2 m/S 713 mmHg 95%
    03:00 +13°C° 0.1 mm 2 m/S 713 mmHg 95%
    04:00 +13°C° 0.1 mm 2 m/S 713 mmHg 94%
    05:00 +14°C° 0.1 mm 2 m/S 713 mmHg 92%
    06:00 +15°C° 0.1 mm 2 m/S 713 mmHg 90%
    07:00 +15°C° 0.1 mm 2 m/S 713 mmHg 88%
    08:00 +17°C° 0.1 mm 2 m/S 714 mmHg 82%
    09:00 +20°C° 0.1 mm 1 m/S 714 mmHg 76%
    10:00 +22°C° 0.1 mm 1 m/S 714 mmHg 69%
    11:00 +23°C° 0 mm 1 m/S 714 mmHg 66%
    12:00 +24°C° 0 mm 1 m/S 714 mmHg 63%
    13:00 +25°C° 0 mm 1 m/S 714 mmHg 60%
    14:00 +25°C° 0.2 mm 1 m/S 714 mmHg 62%
    15:00 +25°C° 0.2 mm 1 m/S 714 mmHg 64%
    16:00 +25°C° 0.2 mm 1 m/S 713 mmHg 66%
    17:00 +23°C° 0.4 mm 1 m/S 713 mmHg 75%
    18:00 +20°C° 0.4 mm 1 m/S 713 mmHg 83%
    19:00 +18°C° 0.4 mm 1 m/S 713 mmHg 91%
    20:00 +18°C° 0.3 mm 1 m/S 713 mmHg 93%
    21:00 +16°C° 0.3 mm 1 m/S 713 mmHg 94%
    22:00 +15°C° 0.3 mm 1 m/S 713 mmHg 96%
    23:00 +15°C° 0.2 mm 1 m/S 713 mmHg 96%

    23 August, Freitag

    Zeit Temperatur Niederschläge Wind Luftdruck Luftfeuchtigkeit
    00:00 +15°C° 0.2 mm 1 m/S 713 mmHg 96%
    01:00 +14°C° 0.2 mm 1 m/S 713 mmHg 96%
    02:00 +14°C° 0 mm 1 m/S 713 mmHg 96%
    03:00 +14°C° 0 mm 1 m/S 713 mmHg 96%
    04:00 +14°C° 0 mm 1 m/S 713 mmHg 96%
    05:00 +15°C° 0 mm 1 m/S 713 mmHg 94%
    06:00 +16°C° 0 mm 1 m/S 713 mmHg 92%
    07:00 +18°C° 0 mm 1 m/S 713 mmHg 90%
    08:00 +21°C° 0 mm 1 m/S 714 mmHg 81%
    09:00 +23°C° 0 mm 1 m/S 714 mmHg 72%
    10:00 +26°C° 0 mm 1 m/S 715 mmHg 63%
    11:00 +26°C° 0.1 mm 1 m/S 715 mmHg 61%
    12:00 +27°C° 0.1 mm 1 m/S 715 mmHg 59%
    13:00 +28°C° 0.1 mm 1 m/S 715 mmHg 57%
    14:00 +28°C° 0.6 mm 1 m/S 714 mmHg 60%
    15:00 +25°C° 0.6 mm 0 m/S 714 mmHg 64%
    16:00 +24°C° 0.6 mm 0 m/S 714 mmHg 67%
    17:00 +22°C° 0.1 mm 0 m/S 713 mmHg 74%
    18:00 +23°C° 0.1 mm 1 m/S 713 mmHg 81%
    19:00 +21°C° 0.1 mm 1 m/S 713 mmHg 89%
    20:00 +20°C° 0.2 mm 1 m/S 713 mmHg 90%
    21:00 +19°C° 0.2 mm 1 m/S 713 mmHg 92%
    22:00 +18°C° 0.2 mm 1 m/S 713 mmHg 94%
    23:00 +18°C° 0.3 mm 1 m/S 713 mmHg 95%

    24 August, Samstag

    Zeit Temperatur Niederschläge Wind Luftdruck Luftfeuchtigkeit
    00:00 +18°C° 0.3 mm 1 m/S 713 mmHg 95%
    01:00 +18°C° 0.3 mm 1 m/S 712 mmHg 95%
    02:00 +18°C° 0 mm 1 m/S 712 mmHg 95%
    03:00 +18°C° 0 mm 1 m/S 712 mmHg 94%
    04:00 +16°C° 0 mm 1 m/S 712 mmHg 94%
    05:00 +19°C° 0 mm 1 m/S 712 mmHg 91%
    06:00 +20°C° 0 mm 1 m/S 712 mmHg 88%
    07:00 +19°C° 0 mm 0 m/S 712 mmHg 85%
    08:00 +21°C° 0.1 mm 0 m/S 713 mmHg 76%
    09:00 +23°C° 0.1 mm 0 m/S 713 mmHg 68%
    10:00 +26°C° 0.1 mm 0 m/S 713 mmHg 59%
    11:00 +28°C° 0.1 mm 1 m/S 713 mmHg 55%
    12:00 +29°C° 0.1 mm 1 m/S 713 mmHg 51%
    13:00 +29°C° 0.1 mm 1 m/S 713 mmHg 47%
    14:00 +29°C° 0 mm 1 m/S 712 mmHg 48%
    15:00 +29°C° 0 mm 1 m/S 712 mmHg 49%
    16:00 +29°C° 0 mm 1 m/S 712 mmHg 51%
    17:00 +26°C° 0 mm 1 m/S 711 mmHg 58%
    18:00 +24°C° 0 mm 1 m/S 711 mmHg 66%
    19:00 +22°C° 0 mm 1 m/S 710 mmHg 74%
    20:00 +21°C° 0.2 mm 1 m/S 710 mmHg 76%
    21:00 +21°C° 0.2 mm 1 m/S 710 mmHg 79%
    22:00 +20°C° 0.2 mm 1 m/S 710 mmHg 82%
    23:00 +20°C° 0.1 mm 1 m/S 710 mmHg 83%

    25 August, Sonntag

    Zeit Temperatur Niederschläge Wind Luftdruck Luftfeuchtigkeit
    00:00 +19°C° 0.1 mm 1 m/S 710 mmHg 84%
    01:00 +19°C° 0.1 mm 1 m/S 710 mmHg 85%
    02:00 +19°C° 0.4 mm 1 m/S 710 mmHg 85%
    03:00 +19°C° 0.4 mm 1 m/S 710 mmHg 86%
    04:00 +19°C° 0.4 mm 1 m/S 709 mmHg 86%
    05:00 +20°C° 0.2 mm 1 m/S 710 mmHg 85%
    06:00 +21°C° 0.2 mm 1 m/S 710 mmHg 84%
    07:00 +22°C° 0.2 mm 1 m/S 710 mmHg 82%
    08:00 +24°C° 0 mm 1 m/S 711 mmHg 72%
    09:00 +27°C° 0 mm 1 m/S 711 mmHg 61%
    10:00 +29°C° 0 mm 1 m/S 711 mmHg 50%
    11:00 +29°C° 0 mm 1 m/S 711 mmHg 48%
    12:00 +30°C° 0 mm 2 m/S 711 mmHg 46%
    13:00 +30°C° 0 mm 2 m/S 711 mmHg 45%
    14:00 +30°C° 0 mm 2 m/S 710 mmHg 48%
    15:00 +29°C° 0 mm 2 m/S 710 mmHg 51%
    16:00 +29°C° 0 mm 2 m/S 710 mmHg 54%
    17:00 +26°C° 0.6 mm 2 m/S 710 mmHg 62%
    18:00 +24°C° 0.6 mm 1 m/S 709 mmHg 71%
    19:00 +22°C° 0.6 mm 1 m/S 709 mmHg 79%
    20:00 +21°C° 0.2 mm 1 m/S 709 mmHg 81%
    21:00 +20°C° 0.2 mm 1 m/S 709 mmHg 83%
    22:00 +20°C° 0.2 mm 1 m/S 709 mmHg 85%
    23:00 +19°C° 0 mm 1 m/S 709 mmHg 85%
    Mehr zeigen